SCP
0 0 -0 -0 -0 0 0 0 0 0 0 0 0 0 0 0 0 0 0 0 0 0 0 0 0 0 0 0 0 0 0 0 0 0 0 0 0 0 0 0 0 0 0 0 0 0 0
-0 -0 -0 -0 -0 -0 0 0 0 0 0 0 0 0 0 0 0 -0 -0 -0 -0 -0 -0 -0 -0 -0 -0 -0 0 0 0 0 0 0 0 0 0 0 0 0 0 0 0 0 0 0 0
-0 -0 -0 -0 -0 -0 -0 -0 -0 -0 -0 -0 -0 -0 -0 0 0 0 -0 -0 0 -0 -0 -0 0 0 -0 0 0 0 0 0 0 0 0 0 0 0 0 0 0 0 0 0 0 0 0
0 0 0 -0 -0 -0 -0 -0 -0 -0 -0 -0 -0 0 0 0 -0 -0 -0 0 0 -0 -0 0 -0 -0 -0 0 0 0 0 0 0 0 0 0 0 0 0 0 0 0 0 0 0 0 0
-0 0 0 0 -0 -0 -0 -0 -0 -0 -0 0 0 -0 -0 -0 -0 -0 -0 -0 -0 -0 -0 0 0 0 0 0 0 0 0 0 0 0 0 0 0 0 0 0 0 0 0 0 0 0 0
-0 -0 0 0 0 0 0 0 0 0 -0 -0 -0 -0 -0 -0 -0 -0 -0 -0 -0 0 0 0 -0 -0 -0 0 0 0 0 0 0 0 0 0 0 0 0 0 0 0 0 0 0 0 0
-0 -0 -0 -0 -0 -0 -0 -0 -0 -0 -0 -0 -0 -0 -0 -0 -0 -0 -0 0 0 -0 0 -0 -0 -0 -0 0 0 0 0 0 0 0 0 0 0 0 0 0 0 0 0 0 0 0 0
-0 -0 -0 -0 -0 -0 -0 -0 0 0 0 -0 -0 -0 -0 -0 -0 -0 0 0 -0 0 -0 -0 -0 -0 -0 0 0 0 -0 0 0 0 0 0 0 0 0 0 0 0 0 0 0 0 0
0 0 0 -0 -0 -0 0 0 0 0 0 0 0 -0 -0 -0 -0 0 0 0 0 0 0 -0 0 0 0 0 -0 0 0 0 0 0 0 0 0 0 0 0 0 0 0 0 0 0 0
0 0 0 0 0 -0 0 0 0 0 0 0 0 0 -0 0 0 0 0 0 0 0 0 0 0 0 0 0 0 0 -0 0 0 0 0 0 0 0 0 0 0 0 0 0 0 0 0
0 0 0 0 0 0 0 0 0 -0 0 0 0 0 0 0 0 0 0 0 0 0 0 0 0 0 0 0 -0 0 0 0 0 0 0 0 0 0 0 0 0 0 0 0 0 0 0
0 0 0 0 0 0 0 0 0 0 0 0 0 0 -0 0 0 0 0 0 0 0 0 0 0 0 0 0 0 0 0 0 0 0 0 0 0 0 0 0 0 0 0 0 0 0 0
0 0 0 0 0 0 0 0 0 0 0 0 0 0 0 0 0 0 0 0 0 0 0 0 0 0 0 -0 0 0 0 0 -0 0 0 0 0 0 0 0 0 0 0 0 0 0 0
0 0 0 0 0 0 0 0 0 0 0 0 0 0 0 0 0 0 0 0 0 0 0 0 0 0 0 0 0 0 0 0 -0 -0 0 0 0 0 0 0 0 0 0 0 0 0 0
0 0 0 0 0 0 0 0 0 0 0 0 0 0 0 0 0 0 0 0 0 0 0 0 0 0 0 0 0 0 0 0 0 0 0 0 0 0 0 0 0 0 0 0 0 0 0
0 0 0 0 0 0 0 0 0 0 0 0 0 0 0 0 0 0 0 0 0 0 0 0 0 0 0 0 0 0 0 0 0 0 0 0 0 0 0 0 0 0 0 0 0 0 0
0 0 0 0 0 0 0 0 0 0 0 0 0 0 0 0 0 0 0 0 0 0 0 0 0 0 0 0 0 0 0 0 -0 0 0 0 0 0 0 0 0 0 0 0 0 0 0
0 0 0 0 0 0 0 0 0 0 -0 0 0 0 0 0 0 0 0 0 0 0 0 0 0 0 0 0 -0 0 -0 0 0 0 0 0 0 0 0 0 0 0 0 0 0 0 0
0 0 0 0 0 0 0 0 0 0 0 0 0 0 0 0 0 0 0 0 0 0 0 0 0 0 0 0 0 -0 0 0 -0 0 0 0 0 0 0 0 0 0 0 0 0 0 0
0 0 0 0 0 0 0 0 0 0 0 0 0 0 0 0 0 0 0 0 0 0 0 0 0 0 0 0 0 0 0 0 0 0 0 0 0 0 0 0 0 0 0 0 0 0 -0
0 0 0 0 0 0 0 0 0 0 0 0 0 0 0 0 0 0 0 0 0 0 0 0 0 0 0 0 0 0 0 0 -0 0 0 0 0 0 0 0 0 0 0 0 0 0 -0
0 -0 -0 0 0 0 0 0 0 0 0 0 0 0 0 0 0 0 0 0 0 0 0 0 0 -0 0 0 0 -0 -0 0 0 0 0 0 -0 0 0 -0 0 0 0 0 0 0 -0
0 0 0 0 0 0 0 0 0 0 0 0 0 0 0 0 0 0 0 0 0 0 0 0 0 0 0 0 0 -0 -0 -0 -0 -0 -0 0 0 0 0 0 0 0 0 0 0 0 -0
0 0 0 0 0 0 0 0 0 0 0 0 0 0 0 0 0 0 0 0 0 0 0 0 0 0 0 -0 -0 0 -0 -0 -0 -0 0 0 -0 -0 -0 -0 -0 0 0 0 0 0 0
0 0 0 0 0 0 0 0 0 0 0 0 0 0 0 0 0 0 0 0 0 0 0 0 0 0 0 0 0 0 0 0 0 -0 -0 -0 -0 0 0 0 -0 0 0 0 0 0 0
0 0 0 0 0 0 0 0 0 0 0 0 0 0 0 0 0 0 0 0 0 0 0 0 0 0 -0 0 0 0 -0 -0 0 0 0 -0 -0 -0 0 -0 -0 0 0 0 0 0 0
0 0 0 0 0 0 0 0 0 0 0 0 0 0 0 0 0 0 0 0 0 0 0 0 0 0 -0 -0 0 0 0 0 0 -0 0 -0 0 -0 -0 0 -0 -0 0 0 0 0 0
0 0 0 0 0 0 0 0 0 0 0 0 0 0 0 0 0 0 0 0 0 0 0 0 0 0 0 -0 0 0 0 0 0 0 0 -0 0 0 0 0 -0 0 0 0 0 0 0
0 0 0 0 0 0 0 0 0 0 0 0 0 0 0 0 0 0 0 -0 -0 -0 0 0 0 0 -0 -0 0 0 0 0 0 0 0 0 0 0 0 0 0 -0 0 0 0 0 0
Wind_Speed_500mb
34 34 33 33 32 32 31 32 32 33 33 34 35 36 37 38 41 41 42 45 47 47 46 44 40 44 46 21 40 35 41 51 38 29 14 53 48 32 17 13 22 29 18 27 42 48 41
34 34 34 34 35 35 35 35 36 36 37 37 38 40 41 44 44 42 43 43 40 39 40 41 40 39 21 15 32 29 39 36 36 33 14 31 22 46 13 13 28 3 22 38 46 51 40
34 33 32 33 34 34 35 36 36 35 34 32 33 36 40 40 37 36 32 35 33 36 39 36 32 26 22 65 54 51 47 47 44 35 32 12 52 24 17 3 32 27 16 21 28 12 15
34 33 34 34 35 36 37 37 39 41 42 43 44 44 44 44 41 30 27 31 25 31 31 29 38 18 29 46 35 29 34 50 36 36 36 28 20 22 18 15 11 6 8 29 34 26 17
36 37 39 41 41 40 41 43 44 46 48 47 46 45 44 41 35 28 29 35 28 14 24 41 22 15 29 47 32 38 38 70 39 27 30 24 14 17 9 9 7 9 24 30 22 11 14
38 39 39 41 43 46 47 47 48 51 53 53 50 48 46 41 36 31 26 31 33 18 30 26 9 13 25 52 61 65 47 40 37 26 33 30 18 9 6 12 32 21 28 5 8 6 17
35 37 38 41 44 46 48 50 52 53 54 55 54 51 47 34 26 21 26 32 41 17 52 25 42 32 43 49 54 46 41 36 41 13 7 17 8 30 36 29 24 12 12 4 8 14 24
37 39 40 42 44 46 48 52 54 55 55 55 53 50 46 29 15 18 20 18 31 28 25 19 25 34 27 34 28 47 23 9 3 12 14 5 35 15 2 5 17 24 21 16 12 22 10
40 40 40 40 42 44 49 53 55 56 54 52 49 47 43 29 11 25 24 25 26 22 7 25 24 23 38 35 14 33 9 4 8 11 13 16 12 11 23 12 20 14 16 18 16 18 36
43 43 44 44 44 48 51 54 57 57 55 52 46 43 37 27 15 35 23 30 30 21 5 10 11 12 51 35 8 25 16 13 7 12 11 12 15 19 14 13 31 31 7 17 8 10 18
46 45 44 44 46 48 52 57 60 57 52 51 47 39 27 24 28 33 35 36 26 1 6 25 9 30 57 12 33 15 10 3 9 17 6 17 11 5 21 19 16 14 24 22 20 16 8
49 49 49 50 51 51 52 55 61 62 56 51 48 32 27 20 28 33 39 40 4 9 7 14 24 31 24 38 27 21 14 12 8 13 13 34 27 17 15 17 16 11 8 16 18 4 11
50 51 51 53 55 57 57 55 58 62 58 56 46 32 21 11 24 33 39 16 8 9 14 13 27 31 33 17 21 10 26 15 5 5 5 9 29 13 15 12 9 9 7 2 3 7 23
47 50 52 54 56 58 62 59 57 64 64 60 52 28 7 5 17 28 34 9 13 4 8 12 19 32 8 19 16 18 20 10 6 19 4 2 6 17 12 22 14 14 18 9 12 10 10
47 49 52 55 58 62 65 66 60 62 64 63 41 19 10 4 13 21 16 9 5 8 16 18 20 8 9 24 12 12 9 5 4 12 3 8 7 5 5 1 11 4 9 18 8 6 4
48 49 51 53 56 59 63 67 65 63 61 60 35 9 16 6 10 15 9 6 6 11 23 14 8 5 10 17 12 14 7 4 8 11 5 8 0 8 10 7 12 11 6 6 2 9 10
48 49 50 52 56 59 62 63 65 68 62 55 28 6 14 7 14 5 4 10 14 25 28 9 8 10 13 10 11 7 10 13 4 11 12 5 2 5 3 7 7 4 5 8 6 10 8
50 50 49 51 55 58 61 63 62 64 69 57 21 5 8 9 9 3 2 12 26 19 22 10 8 7 8 13 9 8 9 9 16 4 8 7 3 7 16 13 15 5 8 7 7 13 15
49 52 51 52 53 55 59 59 61 56 60 55 27 9 13 12 5 6 13 12 10 14 17 10 11 6 5 8 8 11 11 12 29 4 3 4 3 7 15 6 9 2 10 10 6 2 19
50 50 52 55 56 55 56 57 56 54 51 40 16 8 9 8 7 3 8 8 14 28 18 23 12 10 9 12 13 14 19 13 14 11 20 10 7 8 7 15 13 18 23 9 7 6 13
50 52 54 56 59 57 54 53 54 53 48 28 16 5 5 8 9 14 7 9 15 16 8 17 9 7 28 12 28 14 12 11 15 26 8 12 10 10 18 25 27 31 33 34 23 17 13
48 49 51 55 61 56 55 50 50 53 49 15 15 12 11 27 24 10 9 6 16 24 10 16 11 33 29 20 27 44 37 19 21 13 5 6 9 7 18 20 37 35 37 37 33 34 26
48 46 50 52 59 60 51 48 45 48 46 15 20 8 11 16 9 7 5 10 29 32 22 25 29 30 27 31 40 61 63 63 43 32 13 12 8 2 11 20 21 23 40 45 31 25 24
48 49 53 56 55 55 53 47 39 37 39 34 21 16 7 9 6 9 20 38 31 27 25 43 42 18 30 73 75 46 39 45 34 32 32 8 8 7 10 10 11 7 18 15 29 25 26
51 50 55 58 55 55 54 51 34 31 28 32 26 12 7 8 12 31 16 15 31 35 23 36 47 48 49 36 9 12 9 6 1 12 24 30 15 6 7 6 15 17 13 11 9 4 13
50 54 55 56 58 57 56 50 36 29 25 30 28 14 14 14 8 18 26 26 14 16 11 32 39 32 29 6 5 7 6 8 9 17 11 20 27 14 5 6 8 6 13 26 20 10 13
55 58 57 59 63 61 54 49 37 28 25 25 30 13 15 15 29 15 10 9 17 11 9 20 21 14 23 10 7 5 6 7 8 10 9 2 4 19 13 9 10 8 24 27 13 4 32
63 64 63 60 60 60 54 46 40 25 25 25 32 29 25 17 53 53 26 22 22 20 6 19 18 11 9 10 6 6 5 7 8 6 13 5 6 3 6 9 7 24 28 5 11 19 21
63 62 61 58 52 55 50 40 34 29 27 24 36 36 31 33 60 84 81 79 76 60 39 12 8 4 4 5 4 6 5 6 9 6 5 5 5 5 4 4 6 31 38 25 18 17 16
Wind_Direction_500mb
29 29 30 29 29 27 24 19 14 9 5 2 0 356 351 347 341 335 331 330 330 325 318 312 313 311 318 314 285 294 268 267 271 291 304 218 212 212 198 203 219 244 238 232 246 258 254
35 34 32 32 28 23 18 11 6 2 359 358 356 353 351 347 342 338 337 336 337 330 318 313 315 313 321 295 314 312 301 285 278 260 278 222 218 215 254 215 206 148 227 245 248 257 265
30 29 29 25 22 17 11 6 3 1 358 357 354 354 354 353 350 349 353 352 347 325 329 327 317 312 295 283 312 296 292 290 275 244 253 219 221 219 233 293 252 260 292 281 240 215 241
26 22 21 20 17 12 8 4 2 358 357 357 356 355 353 352 352 4 13 5 343 301 323 345 339 330 280 329 329 344 2 338 302 248 238 228 218 253 230 268 311 216 191 244 254 227 221
18 16 13 9 7 6 3 1 359 357 355 353 350 347 348 351 351 2 2 3 1 6 2 339 337 341 286 324 326 326 319 329 318 246 229 228 228 218 193 160 350 235 239 228 260 203 208
12 12 12 7 5 3 360 358 358 356 353 349 345 343 345 348 349 348 351 341 332 294 335 326 335 325 316 317 325 310 289 307 329 301 218 220 207 173 168 160 213 217 229 295 182 206 225
9 8 9 6 2 1 360 358 357 354 350 346 343 342 343 344 342 337 334 346 13 336 321 280 279 268 292 330 320 316 295 292 307 242 213 195 166 212 209 223 272 339 301 15 337 227 218
5 4 4 3 1 3 1 358 355 352 349 345 342 340 339 343 349 326 336 7 355 320 303 303 279 265 328 336 303 327 313 213 281 303 318 295 231 222 94 199 232 261 275 277 281 270 272
9 6 4 4 4 4 1 358 355 351 350 345 343 339 337 347 292 348 352 354 338 327 272 289 316 293 327 325 285 310 282 158 222 258 249 231 260 238 236 249 248 235 227 254 246 310 299
11 7 5 5 4 0 359 358 356 354 351 347 347 339 337 358 357 344 4 347 340 320 23 283 339 314 345 340 286 323 346 196 224 235 258 246 235 245 258 238 229 253 230 254 261 211 259
13 9 6 2 359 357 355 355 355 354 352 347 350 335 334 328 341 344 342 338 341 331 11 315 351 337 330 311 320 318 310 84 268 263 192 231 284 251 236 240 230 250 236 251 227 241 274
13 10 5 0 357 355 352 351 353 352 350 345 347 333 323 308 331 345 337 335 342 50 278 330 346 327 327 326 333 333 300 260 272 277 225 231 242 244 219 252 245 253 224 229 225 132 250
9 8 5 3 2 360 355 350 351 351 349 342 345 324 304 295 334 343 336 347 37 90 348 345 317 320 318 318 323 337 324 299 109 331 307 345 230 257 227 236 252 177 85 254 138 190 229
6 4 2 3 1 1 359 355 352 351 350 343 345 338 300 299 349 349 341 42 60 343 291 302 309 310 321 346 318 332 323 342 145 217 255 105 240 184 211 200 200 191 164 185 182 183 226
4 2 358 359 360 360 358 356 355 354 353 347 356 12 33 323 331 346 356 37 229 325 313 320 326 311 312 333 302 333 318 277 325 28 38 259 239 51 55 54 150 226 162 216 360 240 223
359 1 358 357 357 359 359 357 355 356 357 351 355 43 29 352 326 331 63 284 245 290 311 312 278 271 303 317 317 333 293 302 2 16 150 267 337 359 13 355 211 169 205 100 138 224 238
358 357 358 357 358 357 356 358 356 352 358 357 359 44 24 17 314 344 124 236 273 295 339 320 280 284 289 305 285 284 312 311 27 342 321 320 84 278 14 220 209 283 197 210 195 210 223
356 354 353 351 353 356 355 355 358 352 354 2 3 51 331 312 2 20 352 301 308 334 340 300 282 239 262 298 273 275 282 286 336 3 328 351 197 238 235 240 248 272 246 170 197 231 251
353 353 351 350 351 354 355 355 359 359 355 351 344 319 29 346 65 320 302 286 288 337 314 317 293 273 303 276 307 277 254 268 315 252 206 284 297 319 339 18 53 204 246 214 252 289 248
347 350 350 348 348 349 352 352 357 4 357 356 349 355 338 37 58 122 311 275 330 320 295 318 266 288 334 290 248 269 273 292 337 242 274 147 218 193 203 264 317 295 287 269 203 245 252
343 346 342 346 343 344 347 349 350 359 4 5 7 356 16 308 331 318 266 262 321 343 265 295 292 293 314 283 296 251 237 295 297 282 258 162 227 217 245 261 283 276 263 265 244 237 240
337 339 338 343 341 339 342 344 346 350 5 14 7 357 327 290 278 292 310 277 315 327 305 296 275 305 305 276 272 288 280 250 246 291 262 191 251 247 272 256 257 277 254 252 255 252 254
328 331 334 332 335 338 334 338 344 344 360 8 349 308 285 277 287 302 268 315 312 309 300 259 298 306 299 291 297 287 276 269 257 256 227 187 203 247 258 287 301 280 231 224 228 231 216
323 327 329 328 331 334 336 333 335 341 344 348 347 335 304 276 281 271 290 296 296 306 290 295 301 292 297 309 303 296 261 253 250 240 226 218 170 197 285 310 249 260 18 205 216 232 233
319 321 325 326 326 326 331 330 328 327 326 330 336 301 255 280 287 298 280 314 305 305 292 289 298 304 317 315 330 334 339 350 234 211 201 209 203 244 249 238 293 241 41 11 359 245 28
323 321 323 324 322 324 322 324 324 318 316 312 322 293 245 288 258 264 317 296 297 302 306 304 322 337 347 352 347 335 320 321 324 338 350 196 201 192 204 279 293 48 347 341 314 261 353
325 322 323 322 321 321 322 319 313 302 308 300 296 280 251 263 281 285 235 289 290 283 284 294 324 338 2 359 360 339 308 335 332 312 339 71 186 219 226 244 258 344 326 318 192 313 318
319 317 316 317 321 324 322 322 318 292 296 299 291 291 273 252 282 277 275 245 261 259 267 309 339 4 337 23 354 316 297 321 298 294 329 320 293 247 200 226 266 356 328 259 319 310 322
317 316 316 318 324 321 320 323 316 301 301 296 288 292 292 260 273 295 286 274 264 267 263 274 271 272 317 327 3 299 293 292 295 308 340 323 316 288 311 270 278 293 245 291 324 324 337
Wind_Speed_850mb
34 34 33 33 32 32 31 32 32 33 33 34 35 36 37 38 41 41 42 45 47 47 46 44 40 44 46 21 40 35 41 51 38 29 14 53 48 32 17 13 22 29 18 27 42 48 41
34 34 34 34 35 35 35 35 36 36 37 37 38 40 41 44 44 42 43 43 40 39 40 41 40 39 21 15 32 29 39 36 36 33 14 31 22 46 13 13 28 3 22 38 46 51 40
34 33 32 33 34 34 35 36 36 35 34 32 33 36 40 40 37 36 32 35 33 36 39 36 32 26 22 65 54 51 47 47 44 35 32 12 52 24 17 3 32 27 16 21 28 12 15
34 33 34 34 35 36 37 37 39 41 42 43 44 44 44 44 41 30 27 31 25 31 31 29 38 18 29 46 35 29 34 50 36 36 36 28 20 22 18 15 11 6 8 29 34 26 17
36 37 39 41 41 40 41 43 44 46 48 47 46 45 44 41 35 28 29 35 28 14 24 41 22 15 29 47 32 38 38 70 39 27 30 24 14 17 9 9 7 9 24 30 22 11 14
38 39 39 41 43 46 47 47 48 51 53 53 50 48 46 41 36 31 26 31 33 18 30 26 9 13 25 52 61 65 47 40 37 26 33 30 18 9 6 12 32 21 28 5 8 6 17
35 37 38 41 44 46 48 50 52 53 54 55 54 51 47 34 26 21 26 32 41 17 52 25 42 32 43 49 54 46 41 36 41 13 7 17 8 30 36 29 24 12 12 4 8 14 24
37 39 40 42 44 46 48 52 54 55 55 55 53 50 46 29 15 18 20 18 31 28 25 19 25 34 27 34 28 47 23 9 3 12 14 5 35 15 2 5 17 24 21 16 12 22 10
40 40 40 40 42 44 49 53 55 56 54 52 49 47 43 29 11 25 24 25 26 22 7 25 24 23 38 35 14 33 9 4 8 11 13 16 12 11 23 12 20 14 16 18 16 18 36
43 43 44 44 44 48 51 54 57 57 55 52 46 43 37 27 15 35 23 30 30 21 5 10 11 12 51 35 8 25 16 13 7 12 11 12 15 19 14 13 31 31 7 17 8 10 18
46 45 44 44 46 48 52 57 60 57 52 51 47 39 27 24 28 33 35 36 26 1 6 25 9 30 57 12 33 15 10 3 9 17 6 17 11 5 21 19 16 14 24 22 20 16 8
49 49 49 50 51 51 52 55 61 62 56 51 48 32 27 20 28 33 39 40 4 9 7 14 24 31 24 38 27 21 14 12 8 13 13 34 27 17 15 17 16 11 8 16 18 4 11
50 51 51 53 55 57 57 55 58 62 58 56 46 32 21 11 24 33 39 16 8 9 14 13 27 31 33 17 21 10 26 15 5 5 5 9 29 13 15 12 9 9 7 2 3 7 23
47 50 52 54 56 58 62 59 57 64 64 60 52 28 7 5 17 28 34 9 13 4 8 12 19 32 8 19 16 18 20 10 6 19 4 2 6 17 12 22 14 14 18 9 12 10 10
47 49 52 55 58 62 65 66 60 62 64 63 41 19 10 4 13 21 16 9 5 8 16 18 20 8 9 24 12 12 9 5 4 12 3 8 7 5 5 1 11 4 9 18 8 6 4
48 49 51 53 56 59 63 67 65 63 61 60 35 9 16 6 10 15 9 6 6 11 23 14 8 5 10 17 12 14 7 4 8 11 5 8 0 8 10 7 12 11 6 6 2 9 10
48 49 50 52 56 59 62 63 65 68 62 55 28 6 14 7 14 5 4 10 14 25 28 9 8 10 13 10 11 7 10 13 4 11 12 5 2 5 3 7 7 4 5 8 6 10 8
50 50 49 51 55 58 61 63 62 64 69 57 21 5 8 9 9 3 2 12 26 19 22 10 8 7 8 13 9 8 9 9 16 4 8 7 3 7 16 13 15 5 8 7 7 13 15
49 52 51 52 53 55 59 59 61 56 60 55 27 9 13 12 5 6 13 12 10 14 17 10 11 6 5 8 8 11 11 12 29 4 3 4 3 7 15 6 9 2 10 10 6 2 19
50 50 52 55 56 55 56 57 56 54 51 40 16 8 9 8 7 3 8 8 14 28 18 23 12 10 9 12 13 14 19 13 14 11 20 10 7 8 7 15 13 18 23 9 7 6 13
50 52 54 56 59 57 54 53 54 53 48 28 16 5 5 8 9 14 7 9 15 16 8 17 9 7 28 12 28 14 12 11 15 26 8 12 10 10 18 25 27 31 33 34 23 17 13
48 49 51 55 61 56 55 50 50 53 49 15 15 12 11 27 24 10 9 6 16 24 10 16 11 33 29 20 27 44 37 19 21 13 5 6 9 7 18 20 37 35 37 37 33 34 26
48 46 50 52 59 60 51 48 45 48 46 15 20 8 11 16 9 7 5 10 29 32 22 25 29 30 27 31 40 61 63 63 43 32 13 12 8 2 11 20 21 23 40 45 31 25 24
48 49 53 56 55 55 53 47 39 37 39 34 21 16 7 9 6 9 20 38 31 27 25 43 42 18 30 73 75 46 39 45 34 32 32 8 8 7 10 10 11 7 18 15 29 25 26
51 50 55 58 55 55 54 51 34 31 28 32 26 12 7 8 12 31 16 15 31 35 23 36 47 48 49 36 9 12 9 6 1 12 24 30 15 6 7 6 15 17 13 11 9 4 13
50 54 55 56 58 57 56 50 36 29 25 30 28 14 14 14 8 18 26 26 14 16 11 32 39 32 29 6 5 7 6 8 9 17 11 20 27 14 5 6 8 6 13 26 20 10 13
55 58 57 59 63 61 54 49 37 28 25 25 30 13 15 15 29 15 10 9 17 11 9 20 21 14 23 10 7 5 6 7 8 10 9 2 4 19 13 9 10 8 24 27 13 4 32
63 64 63 60 60 60 54 46 40 25 25 25 32 29 25 17 53 53 26 22 22 20 6 19 18 11 9 10 6 6 5 7 8 6 13 5 6 3 6 9 7 24 28 5 11 19 21
63 62 61 58 52 55 50 40 34 29 27 24 36 36 31 33 60 84 81 79 76 60 39 12 8 4 4 5 4 6 5 6 9 6 5 5 5 5 4 4 6 31 38 25 18 17 16
Wind_Direction_850mb
29 29 30 29 29 27 24 19 14 9 5 2 0 356 351 347 341 335 331 330 330 325 318 312 313 311 318 314 285 294 268 267 271 291 304 218 212 212 198 203 219 244 238 232 246 258 254
35 34 32 32 28 23 18 11 6 2 359 358 356 353 351 347 342 338 337 336 337 330 318 313 315 313 321 295 314 312 301 285 278 260 278 222 218 215 254 215 206 148 227 245 248 257 265
30 29 29 25 22 17 11 6 3 1 358 357 354 354 354 353 350 349 353 352 347 325 329 327 317 312 295 283 312 296 292 290 275 244 253 219 221 219 233 293 252 260 292 281 240 215 241
26 22 21 20 17 12 8 4 2 358 357 357 356 355 353 352 352 4 13 5 343 301 323 345 339 330 280 329 329 344 2 338 302 248 238 228 218 253 230 268 311 216 191 244 254 227 221
18 16 13 9 7 6 3 1 359 357 355 353 350 347 348 351 351 2 2 3 1 6 2 339 337 341 286 324 326 326 319 329 318 246 229 228 228 218 193 160 350 235 239 228 260 203 208
12 12 12 7 5 3 360 358 358 356 353 349 345 343 345 348 349 348 351 341 332 294 335 326 335 325 316 317 325 310 289 307 329 301 218 220 207 173 168 160 213 217 229 295 182 206 225
9 8 9 6 2 1 360 358 357 354 350 346 343 342 343 344 342 337 334 346 13 336 321 280 279 268 292 330 320 316 295 292 307 242 213 195 166 212 209 223 272 339 301 15 337 227 218
5 4 4 3 1 3 1 358 355 352 349 345 342 340 339 343 349 326 336 7 355 320 303 303 279 265 328 336 303 327 313 213 281 303 318 295 231 222 94 199 232 261 275 277 281 270 272
9 6 4 4 4 4 1 358 355 351 350 345 343 339 337 347 292 348 352 354 338 327 272 289 316 293 327 325 285 310 282 158 222 258 249 231 260 238 236 249 248 235 227 254 246 310 299
11 7 5 5 4 0 359 358 356 354 351 347 347 339 337 358 357 344 4 347 340 320 23 283 339 314 345 340 286 323 346 196 224 235 258 246 235 245 258 238 229 253 230 254 261 211 259
13 9 6 2 359 357 355 355 355 354 352 347 350 335 334 328 341 344 342 338 341 331 11 315 351 337 330 311 320 318 310 84 268 263 192 231 284 251 236 240 230 250 236 251 227 241 274
13 10 5 0 357 355 352 351 353 352 350 345 347 333 323 308 331 345 337 335 342 50 278 330 346 327 327 326 333 333 300 260 272 277 225 231 242 244 219 252 245 253 224 229 225 132 250
9 8 5 3 2 360 355 350 351 351 349 342 345 324 304 295 334 343 336 347 37 90 348 345 317 320 318 318 323 337 324 299 109 331 307 345 230 257 227 236 252 177 85 254 138 190 229
6 4 2 3 1 1 359 355 352 351 350 343 345 338 300 299 349 349 341 42 60 343 291 302 309 310 321 346 318 332 323 342 145 217 255 105 240 184 211 200 200 191 164 185 182 183 226
4 2 358 359 360 360 358 356 355 354 353 347 356 12 33 323 331 346 356 37 229 325 313 320 326 311 312 333 302 333 318 277 325 28 38 259 239 51 55 54 150 226 162 216 360 240 223
359 1 358 357 357 359 359 357 355 356 357 351 355 43 29 352 326 331 63 284 245 290 311 312 278 271 303 317 317 333 293 302 2 16 150 267 337 359 13 355 211 169 205 100 138 224 238
358 357 358 357 358 357 356 358 356 352 358 357 359 44 24 17 314 344 124 236 273 295 339 320 280 284 289 305 285 284 312 311 27 342 321 320 84 278 14 220 209 283 197 210 195 210 223
356 354 353 351 353 356 355 355 358 352 354 2 3 51 331 312 2 20 352 301 308 334 340 300 282 239 262 298 273 275 282 286 336 3 328 351 197 238 235 240 248 272 246 170 197 231 251
353 353 351 350 351 354 355 355 359 359 355 351 344 319 29 346 65 320 302 286 288 337 314 317 293 273 303 276 307 277 254 268 315 252 206 284 297 319 339 18 53 204 246 214 252 289 248
347 350 350 348 348 349 352 352 357 4 357 356 349 355 338 37 58 122 311 275 330 320 295 318 266 288 334 290 248 269 273 292 337 242 274 147 218 193 203 264 317 295 287 269 203 245 252
343 346 342 346 343 344 347 349 350 359 4 5 7 356 16 308 331 318 266 262 321 343 265 295 292 293 314 283 296 251 237 295 297 282 258 162 227 217 245 261 283 276 263 265 244 237 240
337 339 338 343 341 339 342 344 346 350 5 14 7 357 327 290 278 292 310 277 315 327 305 296 275 305 305 276 272 288 280 250 246 291 262 191 251 247 272 256 257 277 254 252 255 252 254
328 331 334 332 335 338 334 338 344 344 360 8 349 308 285 277 287 302 268 315 312 309 300 259 298 306 299 291 297 287 276 269 257 256 227 187 203 247 258 287 301 280 231 224 228 231 216
323 327 329 328 331 334 336 333 335 341 344 348 347 335 304 276 281 271 290 296 296 306 290 295 301 292 297 309 303 296 261 253 250 240 226 218 170 197 285 310 249 260 18 205 216 232 233
319 321 325 326 326 326 331 330 328 327 326 330 336 301 255 280 287 298 280 314 305 305 292 289 298 304 317 315 330 334 339 350 234 211 201 209 203 244 249 238 293 241 41 11 359 245 28
323 321 323 324 322 324 322 324 324 318 316 312 322 293 245 288 258 264 317 296 297 302 306 304 322 337 347 352 347 335 320 321 324 338 350 196 201 192 204 279 293 48 347 341 314 261 353
325 322 323 322 321 321 322 319 313 302 308 300 296 280 251 263 281 285 235 289 290 283 284 294 324 338 2 359 360 339 308 335 332 312 339 71 186 219 226 244 258 344 326 318 192 313 318
319 317 316 317 321 324 322 322 318 292 296 299 291 291 273 252 282 277 275 245 261 259 267 309 339 4 337 23 354 316 297 321 298 294 329 320 293 247 200 226 266 356 328 259 319 310 322
317 316 316 318 324 321 320 323 316 301 301 296 288 292 292 260 273 295 286 274 264 267 263 274 271 272 317 327 3 299 293 292 295 308 340 323 316 288 311 270 278 293 245 291 324 324 337